CZ-6A DEB

Satellite information

Favourite Embed

Satellite Type and Status

DEBRISIN ORBIT

Key statistics

Satellite CZ-6A DEB at a glance.

Uptime

335

Days in orbit

Revolutions

≈ 14.0

Per day

Orbit

LEO

Low Earth Orbit

Inclination

88.8

Latest

Satellite identification and parameters

Extended collection of information and parameters for CZ-6A DEB.

Object identification

Identified? True

Debris? True

Object name: CZ-6A DEB

International designator: 2024-140AL

Object number (NORAD): 60635

Object ID (CCSDS): 60635

Country: PEOPLES REPUBLIC OF CHINA (PRC)

Current information (Y/N): Y

RCS size: MEDIUM

Orbital parameters

Period: 103.001 minutes

Inclination: 88.7993 deg

SMA: 7278.707 km

Apoapsis: 1008.54 km

Periapsis: 792.603 km

RAAN: 307.1683 deg

Eccentricy: 0.0148335

Argument of periapsis: 283.0534 deg

Mean anomaly: 75.4121 deg

Mean motion: 13.98045958 rev/day

Mean motion (dot): 0.00000304 rev/day2

B* drag term: 0.00018741 1/REarth

Two-line elements (TLE)

Creation date: July 6, 2025, 10:46 p.m.

Reference frame: TEME

Reference center: EARTH

Epoch: July 6, 2025, 6:07 p.m. UTC

TLE line 0: 0 CZ-6A DEB

TLE line 1: 1 60635U 24140AL 25187.75490973 .00000304 00000-0 18741-3 0 9999

TLE line 2: 2 60635 88.7993 307.1683 0148335 283.0534 75.4121 13.98045958 46465

Live tracking on map

Real-time ground track for satellite CZ-6A DEB.

In-orbit conjunctions

A list of the most updated potential collisions computed for object CZ-6A DEB.

Target Orbit TCA Probability of collision Miss distance Type
FENGYUN 1C DEB SSO 2025-03-03 11:29:20 0.0002888575 531.0 (m) DEBRIS
CZ-6A DEB SSO 2025-02-15 21:49:48 0.0004742462 330.0 (m) DEBRIS
FENGYUN 1C DEB SSO 2025-01-03 11:02:00 0.0002025735 647.0 (m) DEBRIS
NOAA 16 DEB SSO 2024-11-30 23:50:32 0.0004022535 392.0 (m) DEBRIS
FENGYUN 1C DEB SSO 2024-11-21 13:08:28 0.0001168518 542.0 (m) DEBRIS

Associated space launch

18 Low Earth Orbit communication satellites with Ku, Q and V band payloads for the G60 constellation operated by Shanghai Spacecom Satellite Technology (SSST) with funding backed by the Shanghai local government. Initial constellation will consist of 1296 satellites by 2027 with long term plans to expand it to 12000 satellites.

CZ-6A DEB was lifted into orbit during the mission ‘Long March 6A | G60 Polar Group 01’, on board a Long March 6A space rocket.

The launch took place on Aug. 6, 2024, 6:42 a.m. from Launch Complex 9A.

For more information about the launch, click the button.

Launch to space Long March 6A | G60 Polar Group 01
Long March 6A | G60 Polar Group 01

Agency: N/A

Status: Launch Successful

Launch date: Aug. 6, 2024, 6:42 a.m. UTC

Rocket: Long March 6A

Launch pad: Launch Complex 9A

Location: Taiyuan Satellite Launch Center, People's Republic of China

...

Latest news about this satellite

News about space launch
Brightness of first Chinese broadband constellation satellites alarms astronomers

The first satellites of a Chinese broadband constellation are significantly brighter than those of Western systems, posing a new challenge for astronomers.

News about space launch
Chinese rocket stage breaks up into cloud of more than 700 pieces of space debris

HELSINKI — A Chinese Long March 6A rocket’s upper stage has fragmented into a cloud of over 700 pieces of space debris, adding to concerns about long-term orbital safety. China […]

News about space launch
China's Thousand Sails Megaconstellation Kicks Off with Dangerous Debris Field

China's Thousand Sails Megaconstellation Kicks Off with Dangerous Debris Field


Newsletter sign-up

Weekly statistics, charts and insights to help you stay on top of the space industry.